Regional Weather Roundup
Issued by NWS

Home | Current Version | Previous Version | Graphics & Text | Print | Product List | Glossary On
Versions: 1 2 3 4 5 6 7 8 9 10 11 12 13 14 15 16 17 18 19 20 21 22 23 24 25 26 27 28 29 30 31 32 33 34 35 36 37 38 39 40 41 42 43 44 45 46 47 48 49 50
402
ASUS44 KJAN 210203
RWRMS

MISSISSIPPI HOURLY WEATHER ROUNDUP
NATIONAL WEATHER SERVICE JACKSON MS
800 PM CST THU NOV 20 2014

NOTE: "FAIR: INDICATES FEW OR NO CLOUDS BELOW 12,000 FEET WITH NO
SIGNIFICANT WEATHER AND/OR OBSTRUCTIONS TO VISIBILITY.

MSZ001>002-007>008-010>013-018>021-025>028-034>036-210300-
NORTHWEST MISSISSIPPI

CITY           SKY/WX    TMP DP  RH WIND       PRES   REMARKS
CLARKSDALE     FAIR      46  39  76 CALM      30.21S
CLEVELAND      FAIR      47  46  97 E3        30.19S FOG
GREENWOOD      CLOUDY    50  46  86 CALM      30.19F
GREENVILLE     CLOUDY    53  48  83 SE3       30.18S
GRENADA        FAIR      43  41  93 CALM      30.21R
OLIVE BRANCH   PTCLDY    45  30  57 E5        30.23R
OXFORD         FAIR      41  34  75 E3        30.22S
TUNICA         CLEAR     45  34  65 CALM      30.22R
$$

MSZ003>006-009-014>017-022>024-029>033-037>039-210300-
NORTHEAST MISSISSIPPI

CITY           SKY/WX    TMP DP  RH WIND       PRES   REMARKS
COLUMBUS AFB   PTCLDY    45  42  89 SE3       30.22S
CORINTH        CLOUDY    45  28  53 CALM      30.24S
GOLDN TRIANGLE MOCLDY    50  41  71 CALM      30.22S
STARKVILLE       N/A    N/A N/A N/A MISG        N/A
TUPELO         CLEAR     47  33  58 CALM      30.23R
$$

MSZ040-058-210300-
CENTRAL MISSISSIPPI

CITY           SKY/WX    TMP DP  RH WIND       PRES   REMARKS
JACKSON INTL   PTCLDY    53  48  83 S5        30.18F
JACKSON HAWKNS PTCLDY    54  48  80 SE3       30.19S
MERIDIAN KEY   PTCLDY    47  45  93 CALM      30.23R
MERIDIAN NAS   PTCLDY    51  46  83 CALM      30.23S
RAYMOND        FAIR      50  46  87 E5        30.18F
VICKSBURG      CLEAR     49  47  93 N3        30.18R
$$

MSZ059>079-210300-
SOUTH MISSISSIPPI

CITY           SKY/WX    TMP DP  RH WIND       PRES   REMARKS
BROOKHAVEN     FAIR      54  48  82 CALM      30.22S
HATTIESBURG    CLEAR     55  43  63 S3        30.24R
MCCOMB         CLEAR     53  45  74 S5        30.22R
NATCHEZ        CLEAR     54  45  71 S8        30.18F
PINE BELT      CLEAR     52  41  66 S6        30.24R
$$

MSZ080>082-210300-
COASTAL MISSISSIPPI

CITY           SKY/WX    TMP DP  RH WIND       PRES   REMARKS
BILOXI         CLEAR     51  49  91 CALM      30.25R
PASCAGOULA     CLEAR     46  44  93 CALM      30.25R
GULFPORT       CLEAR     49  44  83 CALM      30.25R
$$



USA.gov is the U.S. government's official web portal to all federal, state and local government web resources and services.